SL-16 DEB, 22494

Orbit data source: Space-Track

SL-16 DEB, 22494 is space debris in LEO originally from a launch on Fri, 25 Dec 1992 UTC launched from the Tyuratam Missile And Space Complex (TTMTR). Debris objects in space refer to the collection of defunct objects orbiting the Earth. Examples of debris include non-operational satellites, rocket bodies, and fragments generated from explosions, collisions, or faulty payload assembly.

Loading next visibility...
Identifier
22494, 1992-093GD
Orbit
LEO
Country
Flag of CISCIS
Related business
Manufacturer
Unknown
Mission
Spacecraft
Bus & Motor
Unknown
Mass
Unknown
Launch date (UTC)
1992-12-25 (33 years ago)
Launch vehicle
Unknown
Launch site
Tyuratam Missile And Space Complex (TTMTR)
Object type
Payload
Rocket body
Debris
Shape & HBR
Unknown shape, 0.1 m
Radar Cross Section
Small (<0.1 m²)

Expand to show TLE details & history
Last TLE update: 2 days ago

TLE from 2 days ago
0 SL-16 DEB
1 22494U 92093GD  25304.78632490  .00007244  00000-0  36376-2 0  9991
2 22494  70.8131 206.8472 0150130  43.1507  14.1048 14.11127207656968
Epoch: 2025-10-31T18:52Z
TLE epoch observation values (Epoch: 2025-10-31T18:52:18.471Z)
Latitude
53.06801°
Longitude
-89.13948°
Altitude
758.385 km
Speed
7.535 km/s
True Right ascension
15h 37m 03s
True Declination
52° 54' 10"
Sunlit
Object was in daylight at epoch
Visualization orbit readout
Latitude
Unknown
Longitude
Unknown
Altitude
Unknown
Speed
Unknown
Apparent Right ascension
Unknown
Apparent Declination
Unknown
Sunlit
N/A
Visualization observer readout
Local Sidereal Time
05:09:29
Azimuth
Unknown
Elevation
Unknown
Doppler factor
Unknown
Orbital elements
Apogee altitude
962.031 km
Perigee altitude
744.895 km
Semi-major axis
7,231.6 km
Eccentricity
0.01501
Inclination
70.8131°
RAAN
206.8472°
Arg. of periapsis
43.1507°
True anomaly
14.53181°
Mean anomaly
14.1048°
Eccentric anomaly
14.31752°
Mean motion
3.52932 °/min
Orbital period
102 mins
BSTAR
0.0036376
Loading maneuver chart data...
Computing Atmospheric mass density...
Loading historical data...
Loading historical data...
Loading historical data...
Loading historical data...
Loading historical data...
Loading historical data...
Loading historical data...

Documentation

Showing up to 5 results
|